When you browse on this site, cookies collect data to enhance your experience and personalize the content and advertising you see.
Visit our Privacy Policy to learn more. By continuing to use the site, you agree to this use of cookies and data.
  • In Romania
  • List of Countries
  • For 7 days
  • Water Temperature
  • Satellite Maps
  • Weather Map
  • Weather Widgets
  • user-avatar
    Login

    Hourly Weather Cleveland

    Today, 25 April, Thursday

    Time Temperature Precipitation Wind Pressure Humidity
    00:00 +13°C° 0 mm 1 mps 734 mmHg 91%
    01:00 +13°C° 0 mm 1 mps 734 mmHg 91%
    02:00 +13°C° 0 mm 1 mps 733 mmHg 92%
    03:00 +13°C° 0 mm 1 mps 733 mmHg 92%
    04:00 +12°C° 0 mm 2 mps 733 mmHg 92%
    05:00 +12°C° 0 mm 2 mps 733 mmHg 93%
    06:00 +11°C° 0 mm 3 mps 734 mmHg 93%
    07:00 +13°C° 0 mm 3 mps 734 mmHg 87%
    08:00 +15°C° 0 mm 4 mps 734 mmHg 81%
    09:00 +19°C° 0 mm 4 mps 734 mmHg 75%
    10:00 +21°C° 0 mm 4 mps 735 mmHg 67%
    11:00 +23°C° 0 mm 4 mps 735 mmHg 59%
    12:00 +26°C° 0 mm 4 mps 735 mmHg 51%
    13:00 +26°C° 0 mm 5 mps 735 mmHg 53%
    14:00 +26°C° 0 mm 7 mps 735 mmHg 54%
    15:00 +26°C° 0 mm 8 mps 735 mmHg 56%
    16:00 +23°C° 0 mm 8 mps 736 mmHg 59%
    17:00 +22°C° 0 mm 7 mps 736 mmHg 63%
    18:00 +20°C° 0 mm 7 mps 737 mmHg 67%
    19:00 +17°C° 0 mm 6 mps 738 mmHg 67%
    20:00 +16°C° 0 mm 5 mps 739 mmHg 68%
    21:00 +14°C° 0 mm 4 mps 740 mmHg 68%
    22:00 +13°C° 0 mm 4 mps 740 mmHg 67%
    23:00 +12°C° 0 mm 4 mps 741 mmHg 66%

    Tomorrow, 26 April, Friday

    Time Temperature Precipitation Wind Pressure Humidity
    00:00 +12°C° 0 mm 3 mps 741 mmHg 65%
    01:00 +11°C° 0 mm 3 mps 741 mmHg 61%
    02:00 +11°C° 0 mm 3 mps 742 mmHg 57%
    03:00 +10°C° 0 mm 3 mps 742 mmHg 54%
    04:00 +10°C° 0 mm 3 mps 742 mmHg 55%
    05:00 +10°C° 0 mm 2 mps 742 mmHg 56%
    06:00 +9°C° 0 mm 2 mps 742 mmHg 57%
    07:00 +13°C° 0 mm 1 mps 742 mmHg 53%
    08:00 +16°C° 0 mm 1 mps 743 mmHg 49%
    09:00 +17°C° 0 mm 0 mps 743 mmHg 45%
    10:00 +20°C° 0 mm 1 mps 743 mmHg 43%
    11:00 +22°C° 0 mm 1 mps 743 mmHg 40%
    12:00 +23°C° 0 mm 2 mps 743 mmHg 38%
    13:00 +23°C° 0 mm 2 mps 742 mmHg 38%
    14:00 +24°C° 0 mm 3 mps 741 mmHg 39%
    15:00 +25°C° 0 mm 4 mps 741 mmHg 39%
    16:00 +23°C° 0 mm 4 mps 740 mmHg 45%
    17:00 +22°C° 0 mm 4 mps 739 mmHg 51%
    18:00 +22°C° 0 mm 4 mps 739 mmHg 57%
    19:00 +20°C° 0 mm 4 mps 739 mmHg 60%
    20:00 +18°C° 0 mm 4 mps 738 mmHg 63%
    21:00 +17°C° 0 mm 4 mps 738 mmHg 66%
    22:00 +16°C° 0 mm 5 mps 738 mmHg 64%
    23:00 +16°C° 0 mm 6 mps 737 mmHg 62%

    Day after tomorrow, 27 April, Saturday

    Time Temperature Precipitation Wind Pressure Humidity
    00:00 +16°C° 0 mm 7 mps 736 mmHg 60%
    01:00 +16°C° 0 mm 7 mps 736 mmHg 59%
    02:00 +16°C° 0 mm 8 mps 735 mmHg 58%
    03:00 +16°C° 0 mm 8 mps 734 mmHg 56%
    04:00 +15°C° 0.6 mm 8 mps 733 mmHg 64%
    05:00 +13°C° 0.6 mm 8 mps 733 mmHg 73%
    06:00 +12°C° 0.6 mm 7 mps 732 mmHg 81%
    07:00 +15°C° 0 mm 8 mps 733 mmHg 76%
    08:00 +17°C° 0 mm 8 mps 733 mmHg 72%
    09:00 +20°C° 0 mm 8 mps 734 mmHg 68%
    10:00 +22°C° 0 mm 7 mps 734 mmHg 62%
    11:00 +23°C° 0 mm 6 mps 735 mmHg 56%
    12:00 +26°C° 0 mm 5 mps 735 mmHg 50%
    13:00 +26°C° 0 mm 5 mps 735 mmHg 47%
    14:00 +26°C° 0 mm 6 mps 735 mmHg 44%
    15:00 +26°C° 0 mm 6 mps 735 mmHg 40%
    16:00 +25°C° 0 mm 5 mps 735 mmHg 45%
    17:00 +23°C° 0 mm 4 mps 736 mmHg 49%
    18:00 +22°C° 0 mm 4 mps 736 mmHg 53%
    19:00 +20°C° 0 mm 4 mps 737 mmHg 56%
    20:00 +18°C° 0 mm 4 mps 737 mmHg 59%
    21:00 +15°C° 0 mm 4 mps 738 mmHg 61%
    22:00 +14°C° 0 mm 5 mps 738 mmHg 61%
    23:00 +13°C° 0 mm 6 mps 738 mmHg 60%

    28 April, Sunday

    Time Temperature Precipitation Wind Pressure Humidity
    00:00 +11°C° 0 mm 7 mps 739 mmHg 59%
    01:00 +10°C° 0 mm 7 mps 739 mmHg 60%
    02:00 +10°C° 0 mm 7 mps 739 mmHg 60%
    03:00 +9°C° 0 mm 7 mps 739 mmHg 60%
    04:00 +8°C° 0.1 mm 7 mps 739 mmHg 63%
    05:00 +8°C° 0.1 mm 6 mps 739 mmHg 65%
    06:00 +8°C° 0.1 mm 5 mps 740 mmHg 67%
    07:00 +8°C° 0 mm 5 mps 740 mmHg 66%
    08:00 +8°C° 0 mm 5 mps 740 mmHg 65%
    09:00 +9°C° 0 mm 5 mps 740 mmHg 64%
    10:00 +10°C° 0 mm 5 mps 739 mmHg 66%
    11:00 +13°C° 0 mm 5 mps 739 mmHg 68%
    12:00 +15°C° 0 mm 5 mps 739 mmHg 70%
    13:00 +16°C° 0 mm 5 mps 738 mmHg 73%
    14:00 +17°C° 0 mm 6 mps 737 mmHg 76%
    15:00 +19°C° 0 mm 6 mps 736 mmHg 79%
    16:00 +19°C° 0.1 mm 6 mps 736 mmHg 82%
    17:00 +17°C° 0.1 mm 6 mps 736 mmHg 84%
    18:00 +17°C° 0.1 mm 5 mps 735 mmHg 87%
    19:00 +17°C° 0.1 mm 6 mps 735 mmHg 88%
    20:00 +18°C° 0.1 mm 7 mps 735 mmHg 89%
    21:00 +20°C° 0.1 mm 7 mps 735 mmHg 90%
    22:00 +20°C° 0.1 mm 8 mps 735 mmHg 89%
    23:00 +20°C° 0.1 mm 8 mps 734 mmHg 89%

    29 April, Monday

    Time Temperature Precipitation Wind Pressure Humidity
    00:00 +20°C° 0.1 mm 8 mps 734 mmHg 89%
    01:00 +20°C° 0 mm 8 mps 734 mmHg 88%
    02:00 +20°C° 0 mm 8 mps 733 mmHg 88%
    03:00 +20°C° 0 mm 7 mps 733 mmHg 87%
    04:00 +18°C° 0 mm 7 mps 733 mmHg 86%
    05:00 +19°C° 0 mm 6 mps 733 mmHg 85%
    06:00 +19°C° 0 mm 5 mps 734 mmHg 83%
    07:00 +20°C° 0 mm 6 mps 734 mmHg 79%
    08:00 +22°C° 0 mm 7 mps 735 mmHg 75%
    09:00 +23°C° 0 mm 7 mps 735 mmHg 71%
    10:00 +26°C° 0 mm 8 mps 736 mmHg 68%
    11:00 +27°C° 0 mm 8 mps 736 mmHg 66%
    12:00 +29°C° 0 mm 8 mps 736 mmHg 63%
    13:00 +29°C° 0 mm 8 mps 736 mmHg 63%
    14:00 +29°C° 0 mm 7 mps 736 mmHg 62%
    15:00 +30°C° 0 mm 7 mps 736 mmHg 62%
    16:00 +29°C° 0 mm 7 mps 736 mmHg 66%
    17:00 +28°C° 0 mm 6 mps 736 mmHg 70%
    18:00 +28°C° 0 mm 5 mps 736 mmHg 74%
    19:00 +26°C° 0.1 mm 5 mps 737 mmHg 77%
    20:00 +25°C° 0.1 mm 5 mps 737 mmHg 80%
    21:00 +23°C° 0.1 mm 5 mps 738 mmHg 84%
    22:00 +22°C° 0.7 mm 5 mps 737 mmHg 86%
    23:00 +22°C° 0.7 mm 5 mps 737 mmHg 88%

    30 April, Tuesday

    Time Temperature Precipitation Wind Pressure Humidity
    00:00 +21°C° 0.7 mm 5 mps 737 mmHg 91%
    01:00 +21°C° 4.1 mm 5 mps 737 mmHg 92%
    02:00 +21°C° 4.1 mm 4 mps 737 mmHg 94%
    03:00 +21°C° 4.1 mm 4 mps 736 mmHg 95%
    04:00 +21°C° 2.8 mm 4 mps 736 mmHg 95%
    05:00 +21°C° 2.8 mm 5 mps 736 mmHg 94%
    06:00 +21°C° 2.8 mm 5 mps 736 mmHg 93%
    07:00 +21°C° 0.6 mm 5 mps 737 mmHg 92%
    08:00 +21°C° 0.6 mm 6 mps 737 mmHg 92%
    09:00 +21°C° 0.6 mm 6 mps 737 mmHg 91%
    10:00 +21°C° 0.3 mm 6 mps 737 mmHg 91%
    11:00 +21°C° 0.3 mm 5 mps 736 mmHg 91%
    12:00 +22°C° 0.3 mm 5 mps 736 mmHg 91%
    13:00 +22°C° 0.2 mm 6 mps 735 mmHg 89%
    14:00 +23°C° 0.2 mm 7 mps 735 mmHg 87%
    15:00 +24°C° 0.2 mm 9 mps 734 mmHg 85%
    16:00 +23°C° 0.1 mm 8 mps 734 mmHg 86%
    17:00 +23°C° 0.1 mm 8 mps 734 mmHg 88%
    18:00 +22°C° 0.1 mm 8 mps 734 mmHg 89%
    19:00 +22°C° 0.7 mm 7 mps 734 mmHg 90%
    20:00 +22°C° 0.7 mm 7 mps 734 mmHg 90%
    21:00 +22°C° 0.7 mm 6 mps 734 mmHg 91%
    22:00 +21°C° 2.1 mm 5 mps 734 mmHg 92%
    23:00 +21°C° 2.1 mm 5 mps 734 mmHg 93%
    Show more